weather.gov     
National Weather Service

Regional Weather Roundup
NWS Homepage
This page is being discontinued on March 12, 2014.
The same data is available at this site. Please update your bookmarks.
Thank you, and we apologize for the inconvenience.
Please send an email to SR-SRH.Webmaster@noaa.gov with any concerns.


Current Version
Previous Version:    01  02  03  04  05  06  07  08  09  10  11  12  13  14  15  16  17  18  19  20  21  22  23  24  25  26  
[Printable]
637
ASUS44 KHUN 252310
RWRHUN

WEATHER ROUNDUP FOR THE TENNESSEE VALLEY
NATIONAL WEATHER SERVICE HUNTSVILLE AL
500 PM CST TUE NOV 25 2014

ALZ001>004-260000-
NORTHWEST ALABAMA

CITY           SKY/WX    TMP DP  RH WIND       PRES   REMARKS
COURTLAND HCN    N/A     48 N/A N/A NW6         N/A
RUSSELLVILLE     N/A     45 N/A N/A MISG        N/A
SHOALS AIRPORT   N/A     47  28  47 NW8       30.13R
SHOALS TVA RES   N/A     46 N/A N/A MISG        N/A
$$

ALZ005>007-016-260000-
NORTH CENTRAL ALABAMA

CITY           SKY/WX    TMP DP  RH WIND       PRES   REMARKS
DECATUR AP     CLOUDY    49  29  46 NW9       30.09F
HUNTSVILLE AP  CLOUDY    50  32  50 NW7       30.07F
HUN NWS/UAH      N/A     51  26  37 NW6         N/A
MERIDIANVILLE  CLOUDY    48  25  40 NW7       30.07F
REDSTONE ARSN  CLOUDY    50  29  43 NW8       30.06F
VINEMONT AP    FAIR      47  28  46 NW6       30.11R
$$

ALZ008>010-260000-
NORTHEAST ALABAMA

CITY           SKY/WX    TMP DP  RH WIND       PRES   REMARKS
ALBERTVILLE    CLOUDY    50  37  62 NW8       30.06R
FORT PAYNE     PTCLDY    50  27  40 W3        30.04S
SCOTTSBORO AP  PTCLDY    52  30  43 N6        30.06F
VALLEY HEAD      N/A     48 N/A N/A MISG        N/A
$$

TNZ076-096-097-260000-
SOUTHEASTERN MIDDLE TENNESSEE

CITY           SKY/WX    TMP DP  RH WIND       PRES   REMARKS
TULLAHOMA      CLEAR     45  28  53 NW5       30.10R
WINCHESTER     CLEAR     46  30  53 N6        30.08S
$$

...SURROUNDING SITES...

CITY           SKY/WX    TMP DP  RH WIND       PRES   REMARKS
ATLANTA        CLOUDY    56  29  35 NW7       30.02R
ANNISTON       MOCLDY    56  26  31 NW6       30.05R
BIRMINGHAM     CLOUDY    54  29  38 NW7       30.10R
CHATTANOOGA    MOCLDY    53  32  44 N3        30.05R
CORINTH        FAIR      46  28  49 NW5       30.15R
DALTON         MOCLDY    52  32  46 N3        30.03S
GADSDEN        MOCLDY    52  28  40 NW7       30.05S
GOLDEN TRNGL   MOCLDY    46  30  53 NW5       30.14R
HALEYVILLE     FAIR      45  31  58 CALM      30.14R
JACKSON TN     CLOUDY    43  26  51 NW6       30.15R
LEWISBURG      FAIR      46  29  52 CALM      30.11R
MEMPHIS        MOCLDY    43  25  49 NW7       30.17R
MURFREESBORO   FAIR      47  28  47 NW5       30.11R
NASHVILLE      CLOUDY    45  25  45 N7        30.12S
OXFORD MS      FAIR      43  23  45 W5        30.18R
ROME           MOCLDY    54  33  45 NE3       30.01S
SAVANNAH       CLEAR     43  28  56 CALM      30.14R
TUPELO         CLOUDY    47  28  47 NW3       30.16R
TUSCALOOSA     CLOUDY    52  28  39 NW6       30.14R
$$

...GULF COAST WEATHER...

CITY           SKY/WX    TMP DP  RH WIND       PRES   REMARKS
GULFPORT       CLOUDY    53  36  52 NW8       30.11F
PASCAGOULA     CLOUDY    54  36  50 NW8       30.10F
MOBILE         CLOUDY    53  36  52 NW8       30.12R
GULF SHORES    CLOUDY    56  37  48 N5        30.05F
PENSACOLA      CLOUDY    54  44  69 N3        30.06R
DESTIN         LGT RAIN  52  47  83 N5        30.06R
PANAMA CITY    CLOUDY    50  50 100 N13       30.02R
APPALACHICOLA  LGT RAIN  57  54  89 N13       29.98S
$$





U.S. Dept. of Commerce
NOAA National Weather Service
1325 East West Highway
Silver Spring, MD 20910
E-mail: w-nws.webmaster@noaa.gov
Page last modified: May 16, 2007
NATIONAL WEATHER SERVICE: for Safety, for Work, for Fun - FOR LIFE